Weather in Qubadli

Azerbaijan     39°20′31″N   46°34′56″E
temp.,
°C
wind,
m/s
gust,
m/s
humid.,
%
clouds,
%
prec.,
mm/h
press.,
hPa
HPBL,
m
16 may, sun
sun1601:00+14w33430 0.0 101632
04:00+13w33430 0.0 101629
07:00+15w22540 0.0 101633
10:00+20e21350 0.0 1015884
13:00+23e32270 0.0 10141375
16:00+23e32270 0.0 10121307
19:00+19se12510 0.0 101215
22:00+15w334875 0.0 101424
17 may, mon
mon1701:00+14w334696 0.0 101322
04:00+14w33435 0.0 101323
07:00+16wnw225089 0.0 101322
10:00+22ene21390 0.0 1012548
13:00+25e32344 0.0 1010942
16:00+25ese333469 0.0 1009877
19:00+21ese11510 0.0 100813
22:00+17w33542 0.0 101124
18 may, tue
tue1801:00+15w32585 0.0 101122
04:00+14wnw3355100 0.0 100925
07:00+17wnw225394 0.0 100936
10:00+21e324788 0.0 1009723
13:00+24e33433 0.1 10081099
16:00+24ese544512 0.3 10081229
19:00+20se475928 1.2 1011408
22:00+15w21752 2.3 101417
19 may, wed
wed1901:00+13w22794 0.4 101517
04:00+13w22760 0.4 101519
07:00+15wnw22660 0.0 101664
10:00+20e22500 0.0 1015922
13:00+23ese33426 0.0 10151394
16:00+24e43372 0.0 10141567
19:00+21ese23535 0.0 101556
22:00+16w33580 0.0 101723
20 may, thu
thu2001:00+15w33570 0.0 101626
04:00+15w33540 0.0 101626
07:00+17w22580 0.0 101746
10:00+22e21440 0.0 1016750
13:00+25e32390 0.0 10141229
16:00+26e32370 0.0 10131374
19:00+22ese23540 0.0 101379
22:00+17w32629 0.1 101520